SCP
0 0 0 0 0 0 0 0 0 0 0 0 0 0 0 0 0 0 0 0 0 0 0 0 0 0 0 0 0 0 0 0 0 0 0 0 -0 -0 -0 0 -0 -0 -0
0 0 0 0 0 0 0 0 0 0 0 0 0 0 0 0 0 0 0 0 0 0 0 0 0 0 0 0 0 0 0 0 0 0 0 -0 -0 -0 -0 -0 -0 -0 -0
0 0 0 0 0 0 0 0 0 0 0 0 0 0 0 0 0 0 0 0 0 0 0 0 0 0 0 0 0 0 0 0 0 0 0 0 -0 -0 -0 -0 -0 -0 -0
0 0 0 0 0 0 0 0 0 0 0 0 0 0 0 0 0 0 0 0 0 0 0 0 0 0 0 0 0 0 0 0 0 0 0 0 -0 -0 -0 -0 -0 -0 -0
0 0 0 0 0 0 0 0 0 0 0 0 0 0 0 0 0 0 0 0 0 0 0 0 0 0 0 0 0 0 0 0 0 0 0 -0 -0 -0 -0 -0 -0 -0 -0
0 0 0 0 0 0 0 0 0 0 0 0 0 0 0 0 0 0 0 0 0 0 0 0 0 0 0 0 0 0 0 0 0 0 0 0 -0 -0 -0 -0 -0 -0 -0
0 0 0 0 0 0 0 0 0 0 0 0 0 0 0 0 0 0 0 0 0 0 0 0 0 0 0 0 0 0 0 0 0 0 0 0 0 0 0 0 -0 0 0
0 0 0 0 0 0 0 0 0 0 0 0 0 0 0 0 0 0 0 0 0 0 0 0 0 0 0 0 0 0 0 0 0 0 0 0 0 0 0 0 0 0 0
0 0 0 0 0 0 0 0 0 0 0 0 0 0 0 0 0 0 0 0 0 0 0 0 0 0 0 0 0 0 0 0 0 0 0 0 0 0 0 0 0 0 -0
0 0 0 0 0 0 0 0 0 0 0 0 0 0 0 0 0 0 0 0 0 0 0 0 0 0 0 0 0 0 0 0 0 0 0 0 0 0 0 0 0 0 0
0 0 0 0 0 0 0 0 0 0 0 0 0 0 0 0 0 0 0 0 0 0 0 0 0 0 0 0 0 0 0 0 0 0 0 0 0 0 0 0 0 0 0
0 0 0 0 0 0 0 0 0 0 0 0 0 0 0 0 0 0 0 0 0 0 0 0 0 0 0 0 0 0 0 0 0 0 0 0 0 0 0 0 0 0 0
0 0 0 0 0 0 0 0 0 0 0 0 0 0 0 0 0 0 0 0 0 0 0 0 0 0 0 0 0 0 0 0 0 0 0 0 0 0 0 0 0 0 0
0 0 0 0 0 0 0 0 0 0 0 0 0 0 0 0 0 0 0 0 0 0 0 0 0 0 0 0 0 0 0 0 0 0 0 0 0 0 0 0 -0 -0 0
0 0 0 0 0 0 0 0 0 0 0 0 0 0 0 0 0 0 0 0 0 0 0 0 0 0 0 0 0 0 0 0 0 0 0 0 0 0 0 0 -0 -0 -0
0 0 0 0 0 0 0 0 0 0 0 0 0 0 0 0 0 0 0 0 0 0 0 0 0 0 0 0 0 0 0 0 0 0 0 0 0 0 0 -0 -0 -0 -0
0 0 0 0 0 0 0 0 0 0 0 0 0 0 0 0 0 0 0 0 0 0 0 0 0 0 0 0 0 0 0 0 0 0 0 0 0 0 0 -0 -0 -0 0
0 0 0 0 0 0 0 0 0 0 0 0 0 0 0 0 0 0 0 0 0 0 0 0 0 0 0 0 0 0 0 0 0 0 0 0 0 0 -0 -0 -0 -0 0
0 0 0 0 0 0 0 0 0 0 0 0 0 0 0 0 0 0 0 0 0 0 0 0 0 0 0 0 0 0 0 0 0 0 0 0 0 -0 -0 -0 -0 0 0
0 0 0 0 0 0 0 0 0 0 0 0 0 0 0 0 0 0 0 0 0 0 0 0 0 0 0 0 0 0 0 0 0 0 0 0 0 -0 -0 -0 -0 0 0
0 0 0 0 0 0 0 0 0 0 0 0 0 0 0 0 0 0 0 0 0 0 0 0 0 0 0 0 0 0 0 0 0 0 0 0 -0 -0 -0 -0 -0 0 0
0 0 0 0 0 0 0 0 0 0 0 0 0 0 0 0 0 0 0 0 0 0 0 0 0 0 0 0 0 0 0 0 0 0 0 -0 -0 -0 -0 -0 -0 0 0
0 0 0 0 0 0 0 0 0 0 0 0 0 0 0 0 0 0 0 0 0 0 0 0 0 0 0 0 0 0 0 0 0 0 -0 -0 -0 -0 -0 -0 0 0 0
0 0 0 0 0 0 0 0 0 0 0 0 0 0 0 0 0 0 0 0 0 0 0 0 0 0 0 0 0 0 0 0 0 -0 -0 -0 -0 -0 -0 0 0 0 0
0 0 0 0 0 0 0 0 0 0 0 0 0 0 0 0 0 0 0 0 0 0 0 0 0 0 0 0 0 0 0 0 -0 -0 -0 -0 -0 -0 -0 0 0 0 0
0 0 0 0 0 0 0 0 0 0 0 0 0 0 0 0 0 0 0 0 0 0 0 0 0 0 0 0 0 0 -0 -0 -0 -0 -0 -0 -0 -0 -0 0 0 0 0
Wind_Speed_500mb
32 26 19 15 14 19 23 27 29 29 29 30 32 33 34 36 36 37 37 38 38 37 36 35 35 36 37 38 42 45 46 45 60 88 84 95 100 104 112 111 110 110 106
33 33 27 22 20 21 25 30 31 31 31 31 34 35 36 36 36 37 38 38 38 38 37 36 36 38 39 40 45 47 46 49 54 82 90 100 101 105 112 116 117 112 109
36 37 35 30 26 25 29 34 33 32 33 35 37 38 38 38 37 38 38 38 39 40 39 38 39 41 42 45 48 47 48 51 55 67 96 101 107 110 115 116 116 119 113
39 39 39 35 31 29 33 37 34 33 35 37 40 41 41 39 38 39 39 38 40 41 41 40 41 43 46 50 51 51 53 55 54 61 87 101 104 105 108 114 130 121 125
40 41 40 38 33 34 36 37 35 35 36 40 43 44 44 42 40 41 40 39 41 42 43 44 44 45 47 49 51 53 54 49 51 67 75 88 97 105 98 107 109 129 126
37 36 38 38 36 38 38 37 38 40 41 45 45 46 46 45 43 43 42 42 43 44 46 47 48 49 50 51 49 48 46 43 55 64 73 80 93 91 93 98 107 116 128
32 34 35 36 38 37 36 38 43 46 49 51 49 50 49 49 47 46 45 46 47 47 48 49 50 51 52 53 51 49 51 51 59 60 70 69 80 82 96 109 104 109 114
29 28 31 36 37 37 38 42 45 49 54 56 55 53 53 51 49 49 48 50 51 49 49 51 52 53 54 57 53 51 62 68 64 71 66 74 81 97 97 92 97 103 103
28 31 33 36 40 43 47 50 52 56 57 58 57 57 56 51 51 51 51 53 54 53 51 50 51 52 52 55 47 53 72 69 71 73 70 82 85 91 91 88 92 89 96
32 33 35 39 45 50 54 57 58 60 59 58 60 59 57 54 51 53 52 55 57 55 54 53 51 50 50 39 38 54 71 73 75 82 85 87 87 91 92 85 82 77 88
37 39 42 47 53 56 59 58 59 58 57 59 61 60 58 56 54 54 54 55 56 56 55 53 52 48 44 37 34 56 63 65 75 81 86 90 90 90 93 90 82 78 79
45 48 53 56 58 61 63 63 60 59 59 59 62 61 59 57 58 57 56 56 56 56 57 56 56 48 40 42 46 56 60 65 72 78 83 88 91 93 95 92 85 81 74
51 54 57 59 61 63 65 63 60 59 60 61 62 62 60 58 59 59 58 57 56 57 57 54 46 45 56 55 56 56 59 64 70 76 82 86 87 91 96 95 90 85 79
53 54 56 58 59 57 57 56 53 52 55 58 60 62 62 62 62 58 59 57 54 52 50 50 51 51 57 60 62 59 58 60 65 72 78 82 85 90 93 92 93 92 89
52 52 52 51 50 50 49 48 48 48 47 52 57 60 64 66 61 57 59 58 47 44 45 56 60 63 65 63 60 58 57 59 64 68 73 79 83 87 92 90 88 89 86
47 46 46 48 49 50 51 53 48 49 53 55 58 58 61 61 59 58 49 43 42 47 51 62 70 69 64 62 62 61 60 61 63 67 71 74 79 84 91 90 85 84 86
49 50 52 52 54 55 57 59 66 63 57 56 59 58 58 60 55 54 53 52 52 50 60 72 74 67 63 61 59 61 62 61 62 66 69 71 75 80 84 88 85 83 85
53 56 58 61 62 63 64 66 67 71 76 76 67 63 64 67 68 68 56 52 60 61 70 73 71 64 61 60 58 60 61 61 61 64 66 67 70 75 81 83 81 81 84
57 60 62 64 65 65 67 69 70 73 78 83 83 80 72 63 68 69 56 62 63 69 70 66 63 60 57 56 57 58 59 59 60 62 64 64 67 72 76 78 78 76 79
58 58 58 61 64 64 64 65 67 68 72 77 81 80 75 68 69 66 65 70 72 72 70 65 60 58 54 53 56 56 58 57 58 60 62 62 64 66 72 76 74 75 78
58 59 58 60 58 59 60 61 62 65 69 72 75 72 62 57 64 63 63 65 64 62 61 61 58 56 51 50 53 55 56 56 55 58 60 59 61 65 66 69 71 70 73
57 59 59 60 61 61 61 61 62 63 65 67 69 66 57 55 58 57 57 64 61 57 56 58 58 53 48 48 50 54 55 54 54 56 58 56 59 60 64 67 68 67 70
58 59 60 59 59 60 62 61 62 61 62 62 62 61 57 55 52 53 57 59 59 59 55 57 55 52 46 48 49 54 53 51 53 54 54 55 57 57 60 64 66 66 65
54 56 57 57 58 59 60 61 61 60 59 59 58 56 54 53 51 49 49 50 50 49 50 53 54 50 44 46 50 51 49 49 51 50 50 52 54 53 56 60 60 58 60
55 56 57 59 60 61 62 61 62 59 59 56 55 53 50 50 49 47 46 47 46 45 45 48 50 47 45 46 49 48 48 48 48 47 46 48 50 50 52 56 56 57 53
58 58 59 59 60 60 60 60 59 57 57 55 52 51 49 48 45 44 42 41 42 43 45 45 44 47 46 48 47 47 47 47 46 42 41 45 47 45 48 52 53 52 49
Wind_Direction_500mb
222 231 244 264 292 313 322 319 309 303 306 314 321 323 326 327 328 328 329 328 327 328 328 327 327 328 330 330 331 331 330 325 313 324 325 332 333 333 333 330 328 325 325
228 235 245 258 275 298 312 315 305 295 294 302 311 314 318 320 321 321 322 321 320 321 322 321 321 323 325 326 327 329 327 323 318 318 327 330 332 332 332 331 328 325 323
231 235 241 252 268 290 305 313 305 294 290 298 304 307 311 314 316 317 317 316 316 317 316 316 316 318 320 320 323 323 321 319 319 318 323 328 329 332 332 329 327 325 322
234 237 241 249 265 286 300 308 302 294 292 297 299 302 304 307 310 312 311 310 312 312 312 312 313 314 316 317 319 321 319 318 319 319 319 325 328 331 329 330 326 326 323
239 237 242 250 267 286 296 301 297 293 294 295 296 297 298 300 304 307 306 305 308 309 308 308 309 309 311 312 318 318 316 316 319 316 317 319 324 327 328 328 324 324 322
231 240 244 254 272 285 294 294 292 292 293 292 295 294 294 295 298 301 300 300 304 304 303 303 304 305 307 309 312 314 310 313 314 315 313 316 321 320 326 322 320 319 315
237 244 249 261 271 281 288 294 295 292 287 287 290 292 290 291 293 295 295 296 299 300 299 299 301 303 305 306 309 309 314 311 313 313 313 314 315 320 318 321 319 314 310
244 248 253 260 270 280 288 294 296 292 285 282 284 288 286 288 287 290 290 291 295 297 297 297 298 300 303 305 309 314 305 311 316 316 315 319 317 321 321 316 314 314 311
238 246 254 267 277 283 286 290 291 289 285 280 279 283 284 285 282 285 286 289 293 295 295 294 295 297 302 304 310 304 304 312 315 315 317 318 321 321 322 321 323 317 313
250 257 267 277 284 286 288 288 288 287 284 277 275 280 281 281 279 283 285 287 290 292 293 292 293 298 304 299 302 301 303 315 317 318 319 319 322 323 325 325 324 314 312
265 273 280 283 286 289 292 293 290 285 279 274 273 276 277 278 278 281 281 284 287 289 290 293 295 302 300 299 289 289 305 312 312 315 317 319 322 325 325 326 322 318 310
274 278 280 284 287 291 293 295 292 286 279 272 270 271 274 276 279 280 281 283 286 285 286 288 291 297 296 289 290 301 309 309 312 314 317 320 324 324 326 325 321 321 312
281 282 284 286 289 291 292 292 289 284 277 272 270 271 274 278 278 280 281 283 283 281 283 284 285 286 282 294 302 307 308 309 311 315 317 319 323 324 326 327 324 324 314
289 291 293 295 295 294 292 290 287 284 280 276 273 273 276 278 278 280 280 280 280 279 281 287 283 288 295 300 301 304 305 309 311 313 315 318 322 325 328 330 328 328 321
297 300 300 300 301 300 298 297 293 288 283 278 276 277 277 279 281 279 278 278 277 284 296 292 289 289 293 295 297 301 305 310 312 313 316 319 322 325 327 331 329 329 326
301 303 304 304 304 305 304 302 298 293 289 284 280 280 285 284 284 283 278 270 268 271 271 277 278 282 287 292 298 303 308 311 313 315 317 319 321 324 327 330 330 331 328
304 305 304 304 303 303 303 302 301 297 293 287 284 278 271 270 271 271 270 268 266 266 263 263 270 279 285 290 295 300 305 308 312 315 317 318 320 322 326 329 330 331 329
301 302 303 303 303 303 302 300 297 295 294 292 287 280 276 275 276 274 268 265 265 258 258 265 272 278 284 289 294 298 302 307 311 313 315 316 319 321 326 328 329 330 331
303 304 305 305 304 303 301 299 296 293 291 289 287 284 280 273 271 271 262 257 258 259 266 270 273 276 281 286 290 295 299 305 309 312 313 315 319 321 324 326 327 329 331
305 305 306 305 306 305 304 302 299 297 294 291 289 288 289 287 276 271 268 265 263 266 269 269 272 275 279 284 288 293 297 304 308 311 311 314 317 320 323 325 328 329 330
309 309 308 306 306 306 305 304 301 299 297 295 293 292 291 287 282 276 270 270 269 268 270 270 271 274 277 282 286 291 296 303 307 308 308 312 315 319 323 324 327 330 330
308 308 309 311 311 310 309 307 305 303 300 298 297 296 292 280 277 272 270 273 272 270 267 268 270 275 279 283 286 290 295 302 306 305 306 310 314 319 322 325 328 331 331
311 310 309 308 308 308 309 309 308 306 304 301 300 299 296 290 285 278 273 272 272 273 269 267 269 274 279 281 285 288 295 302 302 302 305 308 313 318 321 324 329 331 332
307 307 308 309 310 310 309 310 310 309 306 302 302 300 297 292 287 283 278 274 272 270 270 268 269 274 277 280 283 287 294 297 298 299 301 306 311 316 320 323 329 332 333
310 309 309 311 312 312 313 311 310 310 309 306 303 303 299 295 289 284 279 276 274 270 267 264 268 274 277 278 282 288 293 294 295 295 299 303 309 313 317 323 328 331 333
313 310 308 308 307 306 306 308 309 309 309 308 305 303 300 297 291 286 282 278 276 271 267 265 268 272 276 278 284 288 291 292 290 290 295 299 304 311 317 321 327 330 332
Wind_Speed_850mb
32 26 19 15 14 19 23 27 29 29 29 30 32 33 34 36 36 37 37 38 38 37 36 35 35 36 37 38 42 45 46 45 60 88 84 95 100 104 112 111 110 110 106
33 33 27 22 20 21 25 30 31 31 31 31 34 35 36 36 36 37 38 38 38 38 37 36 36 38 39 40 45 47 46 49 54 82 90 100 101 105 112 116 117 112 109
36 37 35 30 26 25 29 34 33 32 33 35 37 38 38 38 37 38 38 38 39 40 39 38 39 41 42 45 48 47 48 51 55 67 96 101 107 110 115 116 116 119 113
39 39 39 35 31 29 33 37 34 33 35 37 40 41 41 39 38 39 39 38 40 41 41 40 41 43 46 50 51 51 53 55 54 61 87 101 104 105 108 114 130 121 125
40 41 40 38 33 34 36 37 35 35 36 40 43 44 44 42 40 41 40 39 41 42 43 44 44 45 47 49 51 53 54 49 51 67 75 88 97 105 98 107 109 129 126
37 36 38 38 36 38 38 37 38 40 41 45 45 46 46 45 43 43 42 42 43 44 46 47 48 49 50 51 49 48 46 43 55 64 73 80 93 91 93 98 107 116 128
32 34 35 36 38 37 36 38 43 46 49 51 49 50 49 49 47 46 45 46 47 47 48 49 50 51 52 53 51 49 51 51 59 60 70 69 80 82 96 109 104 109 114
29 28 31 36 37 37 38 42 45 49 54 56 55 53 53 51 49 49 48 50 51 49 49 51 52 53 54 57 53 51 62 68 64 71 66 74 81 97 97 92 97 103 103
28 31 33 36 40 43 47 50 52 56 57 58 57 57 56 51 51 51 51 53 54 53 51 50 51 52 52 55 47 53 72 69 71 73 70 82 85 91 91 88 92 89 96
32 33 35 39 45 50 54 57 58 60 59 58 60 59 57 54 51 53 52 55 57 55 54 53 51 50 50 39 38 54 71 73 75 82 85 87 87 91 92 85 82 77 88
37 39 42 47 53 56 59 58 59 58 57 59 61 60 58 56 54 54 54 55 56 56 55 53 52 48 44 37 34 56 63 65 75 81 86 90 90 90 93 90 82 78 79
45 48 53 56 58 61 63 63 60 59 59 59 62 61 59 57 58 57 56 56 56 56 57 56 56 48 40 42 46 56 60 65 72 78 83 88 91 93 95 92 85 81 74
51 54 57 59 61 63 65 63 60 59 60 61 62 62 60 58 59 59 58 57 56 57 57 54 46 45 56 55 56 56 59 64 70 76 82 86 87 91 96 95 90 85 79
53 54 56 58 59 57 57 56 53 52 55 58 60 62 62 62 62 58 59 57 54 52 50 50 51 51 57 60 62 59 58 60 65 72 78 82 85 90 93 92 93 92 89
52 52 52 51 50 50 49 48 48 48 47 52 57 60 64 66 61 57 59 58 47 44 45 56 60 63 65 63 60 58 57 59 64 68 73 79 83 87 92 90 88 89 86
47 46 46 48 49 50 51 53 48 49 53 55 58 58 61 61 59 58 49 43 42 47 51 62 70 69 64 62 62 61 60 61 63 67 71 74 79 84 91 90 85 84 86
49 50 52 52 54 55 57 59 66 63 57 56 59 58 58 60 55 54 53 52 52 50 60 72 74 67 63 61 59 61 62 61 62 66 69 71 75 80 84 88 85 83 85
53 56 58 61 62 63 64 66 67 71 76 76 67 63 64 67 68 68 56 52 60 61 70 73 71 64 61 60 58 60 61 61 61 64 66 67 70 75 81 83 81 81 84
57 60 62 64 65 65 67 69 70 73 78 83 83 80 72 63 68 69 56 62 63 69 70 66 63 60 57 56 57 58 59 59 60 62 64 64 67 72 76 78 78 76 79
58 58 58 61 64 64 64 65 67 68 72 77 81 80 75 68 69 66 65 70 72 72 70 65 60 58 54 53 56 56 58 57 58 60 62 62 64 66 72 76 74 75 78
58 59 58 60 58 59 60 61 62 65 69 72 75 72 62 57 64 63 63 65 64 62 61 61 58 56 51 50 53 55 56 56 55 58 60 59 61 65 66 69 71 70 73
57 59 59 60 61 61 61 61 62 63 65 67 69 66 57 55 58 57 57 64 61 57 56 58 58 53 48 48 50 54 55 54 54 56 58 56 59 60 64 67 68 67 70
58 59 60 59 59 60 62 61 62 61 62 62 62 61 57 55 52 53 57 59 59 59 55 57 55 52 46 48 49 54 53 51 53 54 54 55 57 57 60 64 66 66 65
54 56 57 57 58 59 60 61 61 60 59 59 58 56 54 53 51 49 49 50 50 49 50 53 54 50 44 46 50 51 49 49 51 50 50 52 54 53 56 60 60 58 60
55 56 57 59 60 61 62 61 62 59 59 56 55 53 50 50 49 47 46 47 46 45 45 48 50 47 45 46 49 48 48 48 48 47 46 48 50 50 52 56 56 57 53
58 58 59 59 60 60 60 60 59 57 57 55 52 51 49 48 45 44 42 41 42 43 45 45 44 47 46 48 47 47 47 47 46 42 41 45 47 45 48 52 53 52 49
Wind_Direction_850mb
222 231 244 264 292 313 322 319 309 303 306 314 321 323 326 327 328 328 329 328 327 328 328 327 327 328 330 330 331 331 330 325 313 324 325 332 333 333 333 330 328 325 325
228 235 245 258 275 298 312 315 305 295 294 302 311 314 318 320 321 321 322 321 320 321 322 321 321 323 325 326 327 329 327 323 318 318 327 330 332 332 332 331 328 325 323
231 235 241 252 268 290 305 313 305 294 290 298 304 307 311 314 316 317 317 316 316 317 316 316 316 318 320 320 323 323 321 319 319 318 323 328 329 332 332 329 327 325 322
234 237 241 249 265 286 300 308 302 294 292 297 299 302 304 307 310 312 311 310 312 312 312 312 313 314 316 317 319 321 319 318 319 319 319 325 328 331 329 330 326 326 323
239 237 242 250 267 286 296 301 297 293 294 295 296 297 298 300 304 307 306 305 308 309 308 308 309 309 311 312 318 318 316 316 319 316 317 319 324 327 328 328 324 324 322
231 240 244 254 272 285 294 294 292 292 293 292 295 294 294 295 298 301 300 300 304 304 303 303 304 305 307 309 312 314 310 313 314 315 313 316 321 320 326 322 320 319 315
237 244 249 261 271 281 288 294 295 292 287 287 290 292 290 291 293 295 295 296 299 300 299 299 301 303 305 306 309 309 314 311 313 313 313 314 315 320 318 321 319 314 310
244 248 253 260 270 280 288 294 296 292 285 282 284 288 286 288 287 290 290 291 295 297 297 297 298 300 303 305 309 314 305 311 316 316 315 319 317 321 321 316 314 314 311
238 246 254 267 277 283 286 290 291 289 285 280 279 283 284 285 282 285 286 289 293 295 295 294 295 297 302 304 310 304 304 312 315 315 317 318 321 321 322 321 323 317 313
250 257 267 277 284 286 288 288 288 287 284 277 275 280 281 281 279 283 285 287 290 292 293 292 293 298 304 299 302 301 303 315 317 318 319 319 322 323 325 325 324 314 312
265 273 280 283 286 289 292 293 290 285 279 274 273 276 277 278 278 281 281 284 287 289 290 293 295 302 300 299 289 289 305 312 312 315 317 319 322 325 325 326 322 318 310
274 278 280 284 287 291 293 295 292 286 279 272 270 271 274 276 279 280 281 283 286 285 286 288 291 297 296 289 290 301 309 309 312 314 317 320 324 324 326 325 321 321 312
281 282 284 286 289 291 292 292 289 284 277 272 270 271 274 278 278 280 281 283 283 281 283 284 285 286 282 294 302 307 308 309 311 315 317 319 323 324 326 327 324 324 314
289 291 293 295 295 294 292 290 287 284 280 276 273 273 276 278 278 280 280 280 280 279 281 287 283 288 295 300 301 304 305 309 311 313 315 318 322 325 328 330 328 328 321
297 300 300 300 301 300 298 297 293 288 283 278 276 277 277 279 281 279 278 278 277 284 296 292 289 289 293 295 297 301 305 310 312 313 316 319 322 325 327 331 329 329 326
301 303 304 304 304 305 304 302 298 293 289 284 280 280 285 284 284 283 278 270 268 271 271 277 278 282 287 292 298 303 308 311 313 315 317 319 321 324 327 330 330 331 328
304 305 304 304 303 303 303 302 301 297 293 287 284 278 271 270 271 271 270 268 266 266 263 263 270 279 285 290 295 300 305 308 312 315 317 318 320 322 326 329 330 331 329
301 302 303 303 303 303 302 300 297 295 294 292 287 280 276 275 276 274 268 265 265 258 258 265 272 278 284 289 294 298 302 307 311 313 315 316 319 321 326 328 329 330 331
303 304 305 305 304 303 301 299 296 293 291 289 287 284 280 273 271 271 262 257 258 259 266 270 273 276 281 286 290 295 299 305 309 312 313 315 319 321 324 326 327 329 331
305 305 306 305 306 305 304 302 299 297 294 291 289 288 289 287 276 271 268 265 263 266 269 269 272 275 279 284 288 293 297 304 308 311 311 314 317 320 323 325 328 329 330
309 309 308 306 306 306 305 304 301 299 297 295 293 292 291 287 282 276 270 270 269 268 270 270 271 274 277 282 286 291 296 303 307 308 308 312 315 319 323 324 327 330 330
308 308 309 311 311 310 309 307 305 303 300 298 297 296 292 280 277 272 270 273 272 270 267 268 270 275 279 283 286 290 295 302 306 305 306 310 314 319 322 325 328 331 331
311 310 309 308 308 308 309 309 308 306 304 301 300 299 296 290 285 278 273 272 272 273 269 267 269 274 279 281 285 288 295 302 302 302 305 308 313 318 321 324 329 331 332
307 307 308 309 310 310 309 310 310 309 306 302 302 300 297 292 287 283 278 274 272 270 270 268 269 274 277 280 283 287 294 297 298 299 301 306 311 316 320 323 329 332 333
310 309 309 311 312 312 313 311 310 310 309 306 303 303 299 295 289 284 279 276 274 270 267 264 268 274 277 278 282 288 293 294 295 295 299 303 309 313 317 323 328 331 333
313 310 308 308 307 306 306 308 309 309 309 308 305 303 300 297 291 286 282 278 276 271 267 265 268 272 276 278 284 288 291 292 290 290 295 299 304 311 317 321 327 330 332